• In Belgium
  • List of Countries
  • For 7 days
  • Water Temperature
  • Satellite Maps
  • Weather Map
  • Weather Widgets
  • user-avatar
    Login

    Hourly Weather Adelaide

    Today, 21 September, Thursday

    Time Temperature Precipitation Wind Pressure Humidity
    00:00 +19°C° 0 mm 6 mps 753 mmHg 23%
    01:00 +19°C° 0 mm 6 mps 753 mmHg 23%
    02:00 +19°C° 0 mm 6 mps 753 mmHg 23%
    03:00 +19°C° 0 mm 6 mps 753 mmHg 24%
    04:00 +17°C° 0 mm 5 mps 753 mmHg 29%
    05:00 +16°C° 0 mm 5 mps 753 mmHg 35%
    06:00 +15°C° 0 mm 4 mps 753 mmHg 41%
    07:00 +17°C° 0 mm 4 mps 754 mmHg 47%
    08:00 +18°C° 0 mm 4 mps 754 mmHg 54%
    09:00 +19°C° 0 mm 4 mps 754 mmHg 58%
    10:00 +20°C° 0 mm 4 mps 754 mmHg 57%
    11:00 +20°C° 0 mm 4 mps 754 mmHg 56%
    12:00 +21°C° 0 mm 4 mps 754 mmHg 56%
    13:00 +21°C° 0 mm 3 mps 753 mmHg 56%
    14:00 +20°C° 0 mm 3 mps 753 mmHg 57%
    15:00 +20°C° 0 mm 3 mps 753 mmHg 57%
    16:00 +18°C° 0 mm 3 mps 753 mmHg 64%
    17:00 +16°C° 0 mm 2 mps 754 mmHg 70%
    18:00 +15°C° 0 mm 2 mps 754 mmHg 76%
    19:00 +14°C° 0 mm 2 mps 754 mmHg 79%
    20:00 +13°C° 0 mm 2 mps 755 mmHg 82%
    21:00 +12°C° 0 mm 2 mps 755 mmHg 84%
    22:00 +12°C° 0 mm 2 mps 755 mmHg 84%
    23:00 +10°C° 0 mm 2 mps 754 mmHg 83%

    Tomorrow, 22 September, Friday

    Time Temperature Precipitation Wind Pressure Humidity
    00:00 +10°C° 0 mm 2 mps 754 mmHg 82%
    01:00 +10°C° 0 mm 2 mps 754 mmHg 82%
    02:00 +10°C° 0 mm 2 mps 753 mmHg 81%
    03:00 +10°C° 0 mm 3 mps 753 mmHg 81%
    04:00 +10°C° 0 mm 3 mps 753 mmHg 80%
    05:00 +10°C° 0 mm 4 mps 752 mmHg 80%
    06:00 +11°C° 0 mm 4 mps 752 mmHg 79%
    07:00 +14°C° 0 mm 4 mps 752 mmHg 71%
    08:00 +17°C° 0 mm 5 mps 751 mmHg 63%
    09:00 +21°C° 0 mm 5 mps 751 mmHg 55%
    10:00 +23°C° 0 mm 5 mps 751 mmHg 50%
    11:00 +26°C° 0 mm 5 mps 750 mmHg 44%
    12:00 +27°C° 0 mm 5 mps 750 mmHg 38%
    13:00 +27°C° 0 mm 5 mps 749 mmHg 41%
    14:00 +27°C° 0 mm 4 mps 749 mmHg 44%
    15:00 +26°C° 0 mm 4 mps 748 mmHg 47%
    16:00 +25°C° 0 mm 3 mps 748 mmHg 51%
    17:00 +24°C° 0 mm 3 mps 748 mmHg 55%
    18:00 +21°C° 0 mm 2 mps 748 mmHg 59%
    19:00 +20°C° 0 mm 2 mps 748 mmHg 63%
    20:00 +19°C° 0 mm 2 mps 749 mmHg 67%
    21:00 +18°C° 0 mm 2 mps 749 mmHg 70%
    22:00 +17°C° 0 mm 2 mps 748 mmHg 74%
    23:00 +17°C° 0 mm 2 mps 748 mmHg 77%

    Day after tomorrow, 23 September, Saturday

    Time Temperature Precipitation Wind Pressure Humidity
    00:00 +16°C° 0 mm 2 mps 747 mmHg 80%
    01:00 +16°C° 0 mm 2 mps 746 mmHg 78%
    02:00 +16°C° 0 mm 3 mps 745 mmHg 76%
    03:00 +17°C° 0 mm 3 mps 744 mmHg 73%
    04:00 +17°C° 0 mm 3 mps 744 mmHg 73%
    05:00 +17°C° 0 mm 3 mps 743 mmHg 73%
    06:00 +17°C° 0 mm 4 mps 743 mmHg 72%
    07:00 +17°C° 0 mm 4 mps 744 mmHg 70%
    08:00 +17°C° 0 mm 5 mps 744 mmHg 68%
    09:00 +19°C° 0 mm 6 mps 745 mmHg 66%
    10:00 +20°C° 0.1 mm 7 mps 745 mmHg 63%
    11:00 +19°C° 0.1 mm 9 mps 746 mmHg 60%
    12:00 +19°C° 0.1 mm 10 mps 746 mmHg 57%
    13:00 +19°C° 0 mm 10 mps 746 mmHg 56%
    14:00 +19°C° 0 mm 9 mps 746 mmHg 55%
    15:00 +18°C° 0 mm 9 mps 745 mmHg 54%
    16:00 +17°C° 0.1 mm 8 mps 746 mmHg 58%
    17:00 +16°C° 0.1 mm 8 mps 746 mmHg 63%
    18:00 +15°C° 0.1 mm 7 mps 747 mmHg 68%
    19:00 +13°C° 0.3 mm 8 mps 747 mmHg 71%
    20:00 +13°C° 0.3 mm 8 mps 747 mmHg 74%
    21:00 +12°C° 0.3 mm 9 mps 748 mmHg 77%
    22:00 +12°C° 0.4 mm 9 mps 747 mmHg 78%
    23:00 +12°C° 0.4 mm 9 mps 747 mmHg 80%

    24 September, Sunday

    Time Temperature Precipitation Wind Pressure Humidity
    00:00 +12°C° 0.4 mm 10 mps 747 mmHg 82%
    01:00 +11°C° 0.1 mm 10 mps 747 mmHg 81%
    02:00 +11°C° 0.1 mm 9 mps 747 mmHg 80%
    03:00 +11°C° 0.1 mm 9 mps 746 mmHg 79%
    04:00 +11°C° 0.1 mm 9 mps 747 mmHg 78%
    05:00 +11°C° 0.1 mm 9 mps 747 mmHg 78%
    06:00 +12°C° 0.1 mm 9 mps 748 mmHg 77%
    07:00 +12°C° 0.2 mm 9 mps 749 mmHg 75%
    08:00 +13°C° 0.2 mm 9 mps 749 mmHg 74%
    09:00 +15°C° 0.2 mm 8 mps 750 mmHg 72%
    10:00 +15°C° 0.2 mm 8 mps 750 mmHg 68%
    11:00 +16°C° 0.2 mm 8 mps 750 mmHg 65%
    12:00 +17°C° 0.2 mm 8 mps 751 mmHg 62%
    13:00 +17°C° 0.1 mm 7 mps 750 mmHg 61%
    14:00 +17°C° 0.1 mm 7 mps 750 mmHg 61%
    15:00 +16°C° 0.1 mm 7 mps 750 mmHg 60%
    16:00 +15°C° 0 mm 6 mps 751 mmHg 65%
    17:00 +14°C° 0 mm 5 mps 751 mmHg 70%
    18:00 +13°C° 0 mm 4 mps 752 mmHg 74%
    19:00 +13°C° 0.1 mm 4 mps 752 mmHg 77%
    20:00 +12°C° 0.1 mm 4 mps 753 mmHg 80%
    21:00 +12°C° 0.1 mm 4 mps 754 mmHg 83%
    22:00 +10°C° 0.1 mm 5 mps 753 mmHg 84%
    23:00 +10°C° 0.1 mm 5 mps 753 mmHg 85%

    25 September, Monday

    Time Temperature Precipitation Wind Pressure Humidity
    00:00 +10°C° 0.1 mm 5 mps 753 mmHg 86%
    01:00 +10°C° 0 mm 5 mps 753 mmHg 85%
    02:00 +11°C° 0 mm 4 mps 753 mmHg 85%
    03:00 +10°C° 0 mm 4 mps 753 mmHg 84%
    04:00 +10°C° 0 mm 4 mps 753 mmHg 85%
    05:00 +10°C° 0 mm 4 mps 754 mmHg 85%
    06:00 +10°C° 0 mm 3 mps 754 mmHg 86%
    07:00 +12°C° 0 mm 4 mps 755 mmHg 78%
    08:00 +13°C° 0 mm 4 mps 755 mmHg 71%
    09:00 +15°C° 0 mm 4 mps 755 mmHg 63%
    10:00 +16°C° 0 mm 5 mps 755 mmHg 60%
    11:00 +17°C° 0 mm 5 mps 755 mmHg 57%
    12:00 +17°C° 0 mm 5 mps 755 mmHg 53%
    13:00 +17°C° 0 mm 5 mps 755 mmHg 54%
    14:00 +18°C° 0 mm 4 mps 755 mmHg 54%
    15:00 +18°C° 0 mm 4 mps 755 mmHg 54%
    16:00 +15°C° 0 mm 4 mps 756 mmHg 61%
    17:00 +14°C° 0 mm 4 mps 756 mmHg 68%
    18:00 +12°C° 0 mm 3 mps 757 mmHg 75%
    19:00 +11°C° 0 mm 3 mps 757 mmHg 79%
    20:00 +11°C° 0 mm 4 mps 758 mmHg 83%
    21:00 +10°C° 0 mm 4 mps 758 mmHg 87%
    22:00 +8°C° 0 mm 4 mps 758 mmHg 87%
    23:00 +8°C° 0 mm 4 mps 758 mmHg 87%

    26 September, Tuesday

    Time Temperature Precipitation Wind Pressure Humidity
    00:00 +7°C° 0 mm 4 mps 758 mmHg 88%
    01:00 +7°C° 0 mm 4 mps 758 mmHg 87%
    02:00 +7°C° 0 mm 4 mps 757 mmHg 86%
    03:00 +6°C° 0 mm 4 mps 757 mmHg 86%
    04:00 +6°C° 0 mm 5 mps 757 mmHg 84%
    05:00 +6°C° 0 mm 5 mps 758 mmHg 83%
    06:00 +6°C° 0 mm 5 mps 758 mmHg 81%
    07:00 +8°C° 0 mm 6 mps 758 mmHg 73%
    08:00 +9°C° 0 mm 6 mps 758 mmHg 64%
    09:00 +11°C° 0 mm 6 mps 758 mmHg 55%
    10:00 +13°C° 0 mm 6 mps 758 mmHg 52%
    11:00 +15°C° 0 mm 6 mps 757 mmHg 49%
    12:00 +16°C° 0 mm 6 mps 756 mmHg 45%
    13:00 +17°C° 0 mm 5 mps 755 mmHg 44%
    14:00 +19°C° 0 mm 5 mps 754 mmHg 42%
    15:00 +21°C° 0 mm 5 mps 754 mmHg 40%
    16:00 +19°C° 0 mm 5 mps 753 mmHg 42%
    17:00 +17°C° 0 mm 5 mps 753 mmHg 43%
    18:00 +16°C° 0 mm 5 mps 753 mmHg 45%
    19:00 +16°C° 0 mm 6 mps 753 mmHg 42%
    20:00 +16°C° 0 mm 7 mps 752 mmHg 40%
    21:00 +16°C° 0 mm 8 mps 752 mmHg 37%
    22:00 +16°C° 0 mm 8 mps 751 mmHg 36%
    23:00 +17°C° 0 mm 8 mps 750 mmHg 35%
    Show more